Location: Unspecified
(49.9820°N, 20.4363°E)
Time: 03:34:45
(UTC+02:00)

Vanguard 3 - Pass Details

Date: 17 May 2026
Orbit: 507 x 3204 km, 33.3° (Epoch: 6 June)

Event Time Altitude Azimuth Distance (km) Brightness Sun altitude
Rises 11:43:42 0° 198° (SSW) 6,113 12.0 57.8°
Reaches altitude 10° 11:48:41 10° 185° (S) 5,468 12.0 58.1°
Maximum altitude 12:00:50 24° 141° (SE) 4,926 12.1 58.7°
Drops below altitude 10° 12:14:09 10° 97° (E) 6,071 11.8 59.1°
Sets 12:20:02 0° 86° (E) 6,924 11.9 59.3°
